Weather History for Burlington, IA

Change the Weather History Date:

Wednesday, November 7, 2012

  Actual Average Record
Temperature  
Mean Temperature 43 °F 47 °F  
Max Temperature 45 °F 56 °F 80 °F (1915)
Min Temperature 40 °F 37 °F 4 °F (1991)
Degree Days  
Heating Degree Days 22 18  
Month to date heating degree days 158 119  
Since 1 July heating degree days 703 513  
Cooling Degree Days 0 0  
Month to date cooling degree days 0 0  
Year to date cooling degree days 1287 1206  
Moisture  
Dew Point 37 °F    
Average Humidity 83    
Maximum Humidity 100    
Minimum Humidity 65    
Precipitation  
Precipitation T in 0.08 in 0.86 in (2011)
Month to date precipitation 0.28 0.62  
Year to date precipitation 21.30 34.51  
Sea Level Pressure  
Sea Level Pressure 30.06 in    
Wind  
Wind Speed 7 mph (North)    
Max Wind Speed 17 mph    
Max Gust Speed 22 mph    
Visibility 10 miles    
Events Rain    
T = Trace of Precipitation, MM = Missing Value Source: NWS Daily Summary

Daily Weather History Graph

Daily Weather History Graph

Search for Another Location

Airport:

Trip Planner

Search our weather history database for the weather conditions in past years. The results will help you decide how hot, cold, wet, or windy it might be!

Date:

Astronomy

Nov. 07, 2012 Rise Set
Actual Time 6:42 AM CST 4:53 PM CST
Civil Twilight 6:13 AM CST 5:22 PM CST
Nautical Twilight 5:41 AM CST 5:54 PM CST
Astronomical Twilight 5:08 AM CST 6:26 PM CST
Moon No Moon Rise 1:04 PM CST (11/7)
Length of Visible Light 11h 08m
Length of Day
10h 10m
Last Quarter, 43% of the Moon is Illuminated
Nov 7
Last Quarter
Nov 13
New
Nov 20
First Quarter
Nov 28
Full
Dec 6
Last Quarter

Hourly Weather History & Observations

Time (CST) Temp. Windchill Dew Point Humidity Pressure Visibility Wind Dir Wind Speed Gust Speed Precip Events Conditions
12:53 AM 43.0 °F 38.8 °F 37.9 °F 82% 29.93 in 10.0 mi NW 6.9 mph - 0.00 in Rain Light Rain
1:53 AM 43.0 °F 38.8 °F 37.0 °F 80% 29.93 in 10.0 mi WNW 6.9 mph - 0.00 in   Overcast
2:53 AM 43.0 °F 37.7 °F 37.9 °F 82% 29.94 in 10.0 mi NW 9.2 mph - N/A   Overcast
3:08 AM 42.8 °F 37.0 °F 37.4 °F 81% 29.92 in 10.0 mi NW 10.4 mph - N/A   Overcast
3:30 AM 42.8 °F 37.0 °F 37.4 °F 81% 29.93 in 10.0 mi NNW 10.4 mph - N/A   Overcast
3:45 AM 42.8 °F 35.4 °F 37.4 °F 81% 29.94 in 10.0 mi NNW 15.0 mph 21.9 mph N/A   Overcast
3:53 AM 42.1 °F 36.1 °F 37.0 °F 82% 29.95 in 10.0 mi NNW 10.4 mph 21.9 mph N/A   Overcast
4:12 AM 41.0 °F 32.5 °F 37.4 °F 87% 29.95 in 6.0 mi North 17.3 mph 20.7 mph 0.00 in Rain Light Rain
4:23 AM 39.2 °F 32.0 °F 37.4 °F 93% 29.96 in 4.0 mi North 11.5 mph - 0.00 in Rain Light Rain
4:53 AM 39.9 °F 32.9 °F 39.0 °F 97% 29.98 in 10.0 mi North 11.5 mph 17.3 mph 0.00 in   Overcast
5:15 AM 39.2 °F 32.5 °F 37.4 °F 93% 29.98 in 10.0 mi North 10.4 mph - N/A   Overcast
5:37 AM 41.0 °F 35.2 °F 39.2 °F 93% 29.99 in 10.0 mi NNW 9.2 mph - N/A   Overcast
5:53 AM 41.0 °F 35.2 °F 39.0 °F 93% 30.01 in 10.0 mi NNW 9.2 mph - N/A   Overcast
6:03 AM 41.0 °F 34.3 °F 39.2 °F 93% 30.00 in 10.0 mi North 11.5 mph - N/A   Overcast
6:21 AM 41.0 °F 35.2 °F 37.4 °F 87% 30.01 in 10.0 mi North 9.2 mph - N/A   Overcast
6:50 AM 41.0 °F 35.8 °F 37.4 °F 87% 30.03 in 10.0 mi North 8.1 mph - N/A   Overcast
6:53 AM 41.0 °F 34.7 °F 37.9 °F 89% 30.04 in 10.0 mi North 10.4 mph - N/A   Overcast
7:53 AM 41.0 °F 34.3 °F 37.9 °F 89% 30.08 in 8.0 mi North 11.5 mph - N/A   Overcast
8:53 AM 42.1 °F 35.7 °F 37.0 °F 82% 30.10 in 10.0 mi North 11.5 mph - N/A   Overcast
9:53 AM 42.1 °F 35.7 °F 37.0 °F 82% 30.12 in 9.0 mi NNW 11.5 mph - N/A   Overcast
10:53 AM 43.0 °F 37.2 °F 35.1 °F 74% 30.14 in 10.0 mi North 10.4 mph - N/A   Overcast
11:53 AM 42.1 °F 37.1 °F 35.1 °F 76% 30.14 in 8.0 mi NNW 8.1 mph - N/A   Overcast
12:53 PM 44.1 °F 40.1 °F 35.1 °F 71% 30.13 in 10.0 mi NE 6.9 mph - N/A   Overcast
1:53 PM 45.0 °F 42.6 °F 34.0 °F 65% 30.12 in 10.0 mi Variable 4.6 mph - N/A   Overcast
2:53 PM 44.1 °F 42.5 °F 34.0 °F 68% 30.13 in 10.0 mi NNW 3.5 mph - N/A   Overcast
3:53 PM 44.1 °F 42.5 °F 33.1 °F 65% 30.14 in 10.0 mi WNW 3.5 mph - N/A   Overcast
4:27 PM 44.6 °F 43.1 °F 35.6 °F 71% 30.13 in 10.0 mi Variable 3.5 mph - N/A   Overcast
4:53 PM 43.0 °F - 35.1 °F 74% 30.14 in 10.0 mi Calm Calm - N/A   Overcast
5:53 PM 43.0 °F 41.3 °F 35.1 °F 74% 30.15 in 10.0 mi East 3.5 mph - N/A   Overcast
6:53 PM 42.1 °F 40.2 °F 34.0 °F 73% 30.16 in 10.0 mi SE 3.5 mph - N/A   Overcast
7:53 PM 42.1 °F 40.2 °F 35.1 °F 76% 30.16 in 10.0 mi South 3.5 mph - N/A   Overcast
8:53 PM 41.0 °F 38.0 °F 35.1 °F 79% 30.17 in 10.0 mi SE 4.6 mph - N/A   Overcast
9:53 PM 41.0 °F 37.1 °F 36.0 °F 82% 30.18 in 10.0 mi SE 5.8 mph - N/A   Overcast
10:53 PM 39.9 °F 36.7 °F 36.0 °F 86% 30.18 in 10.0 mi SE 4.6 mph - N/A   Overcast
11:53 PM 39.9 °F 37.8 °F 35.1 °F 83% 30.18 in 10.0 mi SSE 3.5 mph - N/A   Overcast